FIREFLY ALPHA R/B, 68128

Orbit data source: Space-Track

FIREFLY ALPHA R/B, 68128 is space debris in LEO originally from an American launch on Thu, 12 Mar 2026 UTC launched from the Air Force Western Test Range (AFWTR). Debris objects in space refer to the collection of defunct objects orbiting the Earth. Examples of debris include non-operational satellites, rocket bodies, and fragments generated from explosions, collisions, or faulty payload assembly.

Loading next visibility...
Identifier
68128, 2026-046B
Orbit
LEO
Country
Flag of USUS
Related business
None
Manufacturer
Unknown
Mission
Spacecraft
Bus & Motor
Unknown
Mass
Unknown
Launch date (UTC)
2026-03-12 (2 days ago)
Launch vehicle
Unknown
Launch site
Air Force Western Test Range (AFWTR)
Object type
Payload
Rocket body
Debris
Shape & HBR
Unknown
Radar Cross Section
RCS unknown

Expand to show TLE details & history
Last TLE update: 1 day ago

TLE from 1 day ago
0 FIREFLY ALPHA R/B
1 68128U 26046B   26071.39814905  .00011312  00000-0  16665-3 0  9993
2 68128 123.0891 217.1436 0013182 339.8850  20.1690 15.55982569    65
Epoch: 2026-03-12T09:33Z
TLE epoch observation values (Epoch: 2026-03-12T09:33:20.077Z)
Latitude
0.00001°
Longitude
-96.23867°
Altitude
392.222 km
Speed
7.681 km/s
True Right ascension
14h 28m 34s
True Declination
0° 00' 00"
Sunlit
Object was in full shadow at epoch
Visualization orbit readout
Latitude
Unknown
Longitude
Unknown
Altitude
Unknown
Speed
Unknown
Apparent Right ascension
Unknown
Apparent Declination
Unknown
Sunlit
N/A
Visualization observer readout
Local Sidereal Time
00:53:00
Azimuth
Unknown
Elevation
Unknown
Doppler factor
Unknown
Orbital elements
Apogee altitude
407.892 km
Perigee altitude
390.025 km
Semi-major axis
6,777.095 km
Eccentricity
0.00132
Inclination
123.0891°
RAAN
217.1436°
Arg. of periapsis
339.885°
True anomaly
20.22116°
Mean anomaly
20.169°
Eccentric anomaly
20.19507°
Mean motion
3.89025 °/min
Orbital period
92.54 mins
BSTAR
0.00016665
Loading maneuver chart data...
Computing Atmospheric mass density...
Loading historical data...
Loading historical data...
Loading historical data...
Loading historical data...
Loading historical data...
Loading historical data...
Loading historical data...
Other satellites on launch #46 in the year 2026 (2026-03-12 UTC)

Documentation

Showing up to 5 results
|